sat.trackr.live / text

‹ back to catalog

HERMES-1

NORAD 63242 · 2025-052AJ

PAYLOAD ACTIVE UNKNOWN

§ Identity

Operator
Country
IT
Launch date
2025-03-15
Launch site
AFWTR
Launch vehicle
Mass (kg)
RCS (m²)

External: N2YO · Heavens-Above · Gunter

§ Orbital elements

Epoch: 2026-05-24T22:35:52.734048Z

Period
94.65 min
Inclination
97.3932°
Eccentricity
0.0005412
Mean motion
15.21347451 rev/d
Perigee alt
498.1 km
Apogee alt
505.5 km
Semi-major
6,879.9 km
B*
1.8238e-4
RAAN
36.9839°
Arg perigee
265.1528°
Mean anomaly
94.9090°
Rev number
6,626

§ Raw data

HERMES-11 63242U 25052AJ  26144.94158257  .00004017  00000+0  18238-3 0  99952 63242  97.3932  36.9839 0005412 265.1528  94.9090 15.21347451 66265

JSON: /api/v1/satellites/63242 · /tle

For live sub-satellite position, see the globe view (requires WebGL).

§ Visibility from observer

Set your observer location to see the next 7 days of passes ≥ 10°. The values pass through the URL so the page stays shareable.

No JS? Fill the form by hand. The geolocation button needs JavaScript.

§ Radio — SatNOGS DB

ModeDescriptionDownlinkUplink
GFSK Mode U - Transmitter 401.500 MHz

1 transmitter · refreshed weekly from db.satnogs.org